Lexington Weather

Lexington, Massachusetts, USA

29°F
4/1/2020 4:44am 
  • Lexington Conditions: Clear
  • Temperature: 29.3°F / -1.5°C 
  • Dew Point: 27.5°FIncreased 0.2°Fsince last hour.
  • Relative Humidity: 93%Increased 1.0% since last hour.
  • Wind: Calm, 10-min avg: Calm, gust: 1 mph
  • Barometer: 29.87 in Steady
  • Visibility: 10 miles
  • Snow Today: 0.0 in
  •   

Regional Weather Roundup
for Boston / Norton, MA

        
000
ASUS41 KBOX 010104
RWRBOX

REGIONAL WEATHER ROUNDUP
NATIONAL WEATHER SERVICE BOSTON/NORTON MA
900 PM EDT TUE MAR 31 2020

NOTE:  "FAIR" INDICATES FEW OR NO CLOUDS BELOW 12,000 FEET WITH NO 
SIGNIFICANT WEATHER AND/OR OBSTRUCTIONS TO VISIBILITY.

MAZALL-010200-
EASTERN MASSACHUSETTS
  
CITY           SKY/WX    TMP DP  RH WIND       PRES   REMARKS
BOSTON         FAIR      35  27  72 E10       30.03R WCI  27          
BEVERLY        FAIR      31  25  78 CALM      30.02R                  
LAWRENCE       FAIR      32  27  81 NE3       30.04R                  
BEDFORD        FAIR      34  26  72 E6        30.01R WCI  29          
BLUE HILL        N/A     31  26  82 NE12      29.97S WCI  22          
NORWOOD        FAIR      34  26  72 CALM      30.02R                  
MARSHFIELD     FAIR      37  28  70 NE10      30.01S WCI  30          
PLYMOUTH       FAIR      34  27  75 NE5       29.99S WCI  30          
TAUNTON        FAIR      32  26  78 CALM      30.00S                  
NEW BEDFORD    FAIR      32  27  81 NE6       29.99F WCI  26          
$$

MAZALL-010200-
CAPE COD AND THE ISLANDS
  
CITY           SKY/WX    TMP DP  RH WIND       PRES   REMARKS
FALMOUTH       CLEAR     32  27  80 NE7       29.99S WCI  26          
HYANNIS        FAIR      34  25  69 NE7       29.98S WCI  28          
CHATHAM        FAIR      36  26  67 NE7       30.00S WCI  30          
PROVINCETOWN   FAIR      35  29  78 NE13      30.01S WCI  26          
NANTUCKET      CLOUDY    37  27  67 NE14      29.98S WCI  28          
MARTHAS VNYRD  FAIR      34  26  72 NE9       29.98S WCI  27          
$$
 
MAZALL-010200-
CENTRAL AND WESTERN MASSACHUSETTS
  
CITY           SKY/WX    TMP DP  RH WIND       PRES   REMARKS
WORCESTER      FAIR      34  26  72 E8        29.96R WCI  27          
FITCHBURG      FAIR      36  27  69 E6        30.01R WCI  31          
ORANGE         FAIR      34  31  88 CALM      29.97S                  
SPRINGFIELD    CLEAR     34  30  84 NE3       29.96S                  
WESTFIELD      FAIR      37  29  72 N5        29.97S                  
NORTH ADAMS    FAIR      33  31  92 S3        29.97S                  
PITTSFIELD     FAIR      38  32  79 CALM      29.94S                  
$$
 
RIZALL-010200-
RHODE ISLAND
  
CITY           SKY/WX    TMP DP  RH WIND       PRES   REMARKS
PROVIDENCE     FAIR      36  27  69 NE9       30.00R WCI  29          
NEWPORT        FAIR      35  26  69 NE9       29.98S WCI  28          
BLOCK ISLAND   FAIR      37  30  75 E12       29.99S WCI  29          
SMITHFIELD     FAIR      34  28  79 E8        29.99R WCI  27          
WESTERLY       FAIR      40  30  67 E7        29.99S                  
$$
 
CTZALL-010200-
CONNECTICUT
  
CITY           SKY/WX    TMP DP  RH WIND       PRES   REMARKS
BRADLEY INTL   FAIR      40  29  64 N6        29.97S                  
HARTFORD       FAIR      43  29  57 NE3       29.97S                  
BRIDGEPORT     CLOUDY    43  34  70 SE10      29.97R                  
DANBURY        CLOUDY    43  34  70 SE3       29.96R                  
GROTON         FAIR      37  32  82 SE8       29.98S WCI  31          
NEW HAVEN      CLOUDY    43  34  70 S9        29.98R                  
CHESTER        FAIR      37  32  81 CALM      29.97S                  
MERIDEN        CLOUDY    42  32  67 S6        29.98R                  
WILLIMANTIC    FAIR      40  29  64 S5        29.97S                  
OXFORD         CLOUDY    43  30  60 VRB5      29.96R                  
$$

MEZ002-015-021-024-NHZ003-005-008-011-012-014-VTZ005-008-010200-
NORTHERN NEW ENGLAND
  
CITY           SKY/WX    TMP DP  RH WIND       PRES   REMARKS
PORTLAND ME    FAIR      37  28  70 SW3       30.03R                  
BANGOR ME      CLOUDY    39  21  48 E10       30.02R                  
CONCORD NH     MOCLDY    34  27  75 VRB5      30.02R WCI  30          
MANCHESTER NH  FAIR      35  27  72 E6        30.01R WCI  30          
NASHUA NH      FAIR      36  30  79 E7        30.03R WCI  30          
PORTSMOUTH NH  CLEAR     32  28  84 CALM      30.02R                  
JAFFREY NH     FAIR      33  32  96 CALM      29.96R                  
KEENE NH       FAIR      32  29  88 CALM      29.98R                  
BURLINGTON VT  FAIR      40  19  43 N9        30.00S                  
MT. WASHINGTON NOT AVBL                                               
$$

NYZ052-076-010200-
EASTERN NEW YORK
  
CITY           SKY/WX    TMP DP  RH WIND       PRES   REMARKS
ALBANY         FAIR      42  31  64 CALM      29.97S                  
NEW YORK CITY  CLOUDY    44  34  67 SE7       29.96S                  
$$
 
ANZALL-010200-
MARINE OBSERVATIONS
  
STATION/POSITION TIME  TEMP    WIND        PRES    VSBY  WAVE
                       AIR SEA DIR/SP/G                  HT/PER
                 (UTC) (F)     (DEG/KT/KT) (MB)    (MI)  (FT/S)
BOSTON BUOY      0050   37 43   70/ 10/ 14 1015.9S         7/10
BUZZARDS BAY     0000           50/ 20/ 21 1016.3F
NANTUCKET SOUND  0040                        N/A           2/ 3
MASS BAY-STELLWA 0004   36 42  100/ 12/ 14 1014.5F  1 7/8  8/11
ISLE OF SHOALS   0000   36     120/  7/  8 1016.3S
S OF BLOCK IS    0030      43                N/A           5/10
$$

......................KEY.........................
  SKY/WX - SKY CONDITION/PRESENT WEATHER
  TMP    - TEMPERATURE IN FAHRENHEIT
  DWPT   - DEWPOINT IN FAHRENHEIT
  RH     - RELATIVE HUMIDITY IN PERCENT
  WIND   - DIRECTION AND SPEED IN MPH
  PRES   - MEAN SEA LEVEL PRESSURE IN INCHES OF HG
  WCI    - WIND CHILL INDEX
  VSB    - VISIBILITY IN MILES
  HX     - HEAT INDEX
  TC     - TEMPERATURE IN CELSIUS
  VRB    - VARIABLE WIND DIRECTION
  N/A    - NOT AVAILABLE
  
      

Other recent Regional Weather Roundups

Wed Apr 1, 4:05am

Wed Apr 1, 3:04am

Wed Apr 1, 2:04am

Wed Apr 1, 1:04am

Wed Apr 1, 12:04am

Tue Mar 31, 11:04pm

Tue Mar 31, 10:04pm

Tue Mar 31, 8:04pm

Tue Mar 31, 7:04pm

Tue Mar 31, 6:04pm

Tue Mar 31, 4:04pm

Tue Mar 31, 3:04pm

Tue Mar 31, 2:04pm

Tue Mar 31, 1:04pm

Tue Mar 31, 12:05pm

Tue Mar 31, 11:04am

Tue Mar 31, 10:05am

Tue Mar 31, 9:04am

Tue Mar 31, 8:04am

Tue Mar 31, 7:05am

Tue Mar 31, 6:04am

Tue Mar 31, 5:04am

Tue Mar 31, 4:04am

Tue Mar 31, 3:04am

Tue Mar 31, 2:04am

Tue Mar 31, 1:04am

Tue Mar 31, 12:04am

Mon Mar 30, 11:04pm

Mon Mar 30, 10:04pm

Mon Mar 30, 9:05pm

Mon Mar 30, 8:04pm

Mon Mar 30, 7:04pm

Mon Mar 30, 6:04pm

Mon Mar 30, 5:05pm

Mon Mar 30, 4:04pm

Mon Mar 30, 3:04pm

Mon Mar 30, 2:04pm

Mon Mar 30, 1:04pm

Mon Mar 30, 12:04pm

Mon Mar 30, 11:04am

Mon Mar 30, 10:04am

Mon Mar 30, 9:04am

Mon Mar 30, 8:04am

Mon Mar 30, 7:04am

Mon Mar 30, 6:04am

Mon Mar 30, 5:04am

Mon Mar 30, 4:04am

Mon Mar 30, 3:05am

Mon Mar 30, 2:04am

Mon Mar 30, 1:04am

Mon Mar 30, 12:04am

Sun Mar 29, 11:04pm

Sun Mar 29, 10:05pm

Sun Mar 29, 9:04pm

Sun Mar 29, 8:04pm

Sun Mar 29, 7:04pm

Sun Mar 29, 6:04pm

Sun Mar 29, 5:05pm

Sun Mar 29, 4:04pm

Sun Mar 29, 3:04pm

Sun Mar 29, 2:04pm

Sun Mar 29, 1:05pm

Sun Mar 29, 12:04pm

Sun Mar 29, 11:04am

Sun Mar 29, 10:04am

Sun Mar 29, 9:04am

Sun Mar 29, 8:04am

Sun Mar 29, 7:04am

Sun Mar 29, 6:04am

Sun Mar 29, 5:04am

Meta data:

ID: 4d8617cf-6d37-49e0-b4b6-45f822fe37c4
Link: https://api.weather.gov/products/4d8617cf-6d37-49e0-b4b6-45f822fe37c4